Regional Weather Roundup
Issued by NWS Sterling, VA

Home | Current Version | Previous Version | Text Only | Print | Product List | Glossary Off
Versions: 1 2 3 4 5 6 7 8 9 10 11 12 13 14 15 16 17 18 19 20 21 22 23 24 25 26 27

000
ASUS41 KLWX 040810
RWRLWX

REGIONAL WEATHER ROUNDUP
NATIONAL WEATHER SERVICE BALTIMORE MD/WASHINGTON DC
400 AM EDT WED MAY 04 2016

Note: "FAIR" indicates few or no clouds below 12,000 feet
with no significant weather and/or obstructions to visibility.
 TC=TEMPERATURE CELSIUS

 * =Non NWS site. Station does not report precipitation (e.g. rain,
    snow, etc.), thunder, or fog.

DCZ001-MDZ009-015-VAZ040>042-051-053>054-040900-
WASHINGTON METRO

CITY           SKY/WX    TMP DP  RH WIND       PRES   REMARKS
WASHINGTON NAT CLOUDY    56  54  93 NE8       29.75S
DULLES         CLOUDY    55  53  93 E5        29.74S
ANDREWS AFB    CLOUDY    54  53  95 E7        29.74R
FT BELVOIR     CLOUDY    56  55  94 VRB1      29.74S
QUANTICO       CLOUDY    58  55  90 E8        29.75S
COLLEGE PARK*  CLOUDY    54  52  94 E3        29.75R
LEESBURG*      CLOUDY    55  55 100 CALM      29.75S FOG
MANASSAS*      CLOUDY    57  57 100 CALM      29.75R
GAITHERSBURG*  CLOUDY    54  52  94 SE6       29.78S

$$

MDZ006>007-011-014-040900-
BALTIMORE METRO

CITY           SKY/WX    TMP DP  RH WIND       PRES   REMARKS
BWI AIRPORT    CLOUDY    54  52  93 E9        29.75R
MD SCIENCE CTR   N/A     54  51  90 MISG      29.76R
MARTIN STATE   CLOUDY    54  52  94 CALM      29.76F
ANNAPOLIS      CLOUDY    54  52  93 E7        29.75R
FORT MEADE*    CLOUDY    52  50  93 E6        29.77S

$$

MDZ012-015-019>023-040900-
MARYLAND EASTERN SHORE

CITY           SKY/WX    TMP DP  RH WIND       PRES   REMARKS
OCEAN CITY     CLOUDY    50  49  96 NE12G18   29.73F FOG
SALISBURY      CLOUDY    51  50  96 NE7       29.73F FOG
CAMBRIDGE*     CLOUDY    50  50 100 NE3       29.74F
EASTON*        CLOUDY   N/A N/A N/A E6        29.79S

$$

MDZ017>025-040900-
SOUTHERN MARYLAND

CITY           SKY/WX    TMP DP  RH WIND       PRES   REMARKS
PATUXENT RIVER CLOUDY    53  50  89 NE9       29.73F
ST INIGOES     CLOUDY    54  53  97 NE8       29.73F
LEONARDTOWN*   CLOUDY    52  52 100 E3        29.75F

$$

MDZ003>005-040900-
NORTH CENTRAL MARYLAND

CITY           SKY/WX    TMP DP  RH WIND       PRES   REMARKS
FREDERICK*     CLOUDY    54  54 100 CALM      29.77S FOG
HAGERSTOWN APT CLOUDY    57  54  89 CALM      29.73S FOG
WESTMINSTER*   DRIZZLE   54  48  82 E7        29.74F

$$

MDZ501>502-040900-
WESTERN MARYLAND

CITY           SKY/WX    TMP DP  RH WIND       PRES   REMARKS
OAKLAND*       MOCLDY    43  43 100 CALM      29.76F FOG
CUMBERLAND*    CLEAR     52  48  87 CALM      29.79F

$$

VAZ025>031-040900-
SHENANDOAH VALLEY

CITY           SKY/WX    TMP DP  RH WIND       PRES   REMARKS
WINCHESTER*    CLOUDY    54  52  94 CALM      29.74S
FRONT ROYAL*   CLOUDY    54  54 100 CALM      29.73S
LURAY*         FOG       54  54 100 CALM      29.74S VSB 1/4
NEW MARKET*    CLOUDY    51  51 100 CALM      29.74F VSB 1/2
STAUNTON*      CLOUDY    55  55 100 CALM      29.76S
WAYNESBORO*    CLOUDY    55  53  94 W9        29.74F

$$

WVZ021-048>050-054>055-040900-
EASTERN WEST VIRGINIA PANHANDLE

CITY           SKY/WX    TMP DP  RH WIND       PRES   REMARKS
MARTINSBURG    FOG       55  55 100 CALM      29.72F VSB 1/4
PETERSBURG*    FAIR      49  49  97 CALM      29.76F

$$

VAZ036>039-050-040900-
CENTRAL FOOTHILLS

CITY           SKY/WX    TMP DP  RH WIND       PRES   REMARKS
CHARLOTTESVILL FOG       57  55  93 CALM      29.73S VSB 1/4
CULPEPER*      FOG       54  54 100 CALM      29.75R VSB 1/2
ORANGE*        CLOUDY    57  57 100 NE6       29.75S FOG
GORDONSVILLE*  CLOUDY    56  56 100 NE3       29.73R
WARRENTON*     CLOUDY    57  53  84 CALM      29.74R FOG

$$

VAZ055>057-040900-
NORTH AND CENTRAL PIEDMONT

CITY           SKY/WX    TMP DP  RH WIND       PRES   REMARKS
FREDERICKSBRG* CLOUDY    58  58 100 E5        29.73F
STAFFORD*      CLOUDY    56  55  94 NE5       29.78S FOG

$$

NCZ024-NYZ072-PAZ021-071-VAZ022-071-040900-
OTHER REGIONAL OBSERVATIONS

CITY           SKY/WX    TMP DP  RH WIND       PRES   REMARKS
NEW YORK CITY  CLOUDY    50  47  89 CALM      29.83S
PHILADELPHIA   LGT RAIN  52  47  83 E7        29.79S
PITTSBURGH     CLOUDY    52  43  71 CALM      29.74F
ROANOKE        MOCLDY    53  47  79 CALM      29.77S
RICHMOND       CLOUDY    60  58  92 N7        29.70F
RALEIGH        PTCLDY    61  58  90 N3        29.71S

$$

ANZ530>537-040900-
MARINE OBSERVATIONS

STATION/POSITION TIME  TEMP    WIND        PRES
                       AIR SEA DIR/SP/G
                 (UTC) (F)     (DEG/KT/KT) (MB)
THOMAS PT LIGHT  0800   53 59   80/  9/ 10 1008.7R
BALT KEY BRIDGE  0700   54      80/ 14/ 16 1006.9F
COVE POINT       0700   53      70/ 11/ 12 1007.7F
LEWISETTA        0700   56 63   60/  7/ 12 1006.5F
SOLOMONS ISLAND  0700   54 62   40/  6/  9   N/A
PINEY POINT      0700           60/  7/  9   N/A

$$





USA.gov is the U.S. government's official web portal to all federal, state and local government web resources and services.